• In Hungary
  • List of Countries
  • For 7 days
  • Water Temperature
  • Satellite Maps
  • Weather Map
  • News
  • Weather Widgets
  • user-avatar
    Login

    Hourly Weather Praia do Tofo

    Today, 16 December, Saturday

    Time Temperature Precipitation Wind Pressure Humidity
    00:00 +21°C° 0 mm 5 mps 764 mmHg 74%
    01:00 +21°C° 0 mm 5 mps 763 mmHg 74%
    02:00 +21°C° 0 mm 5 mps 763 mmHg 75%
    03:00 +21°C° 0 mm 5 mps 763 mmHg 75%
    04:00 +21°C° 0 mm 4 mps 763 mmHg 75%
    05:00 +21°C° 0 mm 4 mps 763 mmHg 75%
    06:00 +23°C° 0 mm 4 mps 764 mmHg 68%
    07:00 +26°C° 0 mm 5 mps 764 mmHg 60%
    08:00 +27°C° 0 mm 5 mps 764 mmHg 53%
    09:00 +28°C° 0 mm 4 mps 763 mmHg 50%
    10:00 +29°C° 0 mm 4 mps 763 mmHg 46%
    11:00 +30°C° 0 mm 4 mps 763 mmHg 43%
    12:00 +32°C° 0 mm 4 mps 762 mmHg 43%
    13:00 +32°C° 0 mm 4 mps 762 mmHg 43%
    14:00 +32°C° 0 mm 4 mps 761 mmHg 42%
    15:00 +30°C° 0 mm 5 mps 761 mmHg 46%
    16:00 +29°C° 0 mm 5 mps 761 mmHg 50%
    17:00 +28°C° 0 mm 5 mps 761 mmHg 54%
    18:00 +26°C° 0 mm 5 mps 761 mmHg 59%
    19:00 +25°C° 0 mm 5 mps 761 mmHg 64%
    20:00 +23°C° 0 mm 5 mps 761 mmHg 70%
    21:00 +23°C° 0 mm 5 mps 761 mmHg 73%
    22:00 +23°C° 0 mm 5 mps 761 mmHg 75%
    23:00 +22°C° 0 mm 5 mps 761 mmHg 78%

    Tomorrow, 17 December, Sunday

    Time Temperature Precipitation Wind Pressure Humidity
    00:00 +22°C° 0 mm 5 mps 761 mmHg 80%
    01:00 +22°C° 0 mm 4 mps 761 mmHg 81%
    02:00 +22°C° 0 mm 4 mps 760 mmHg 83%
    03:00 +22°C° 0 mm 4 mps 760 mmHg 83%
    04:00 +22°C° 0 mm 4 mps 760 mmHg 84%
    05:00 +21°C° 0 mm 3 mps 760 mmHg 84%
    06:00 +25°C° 0 mm 3 mps 760 mmHg 75%
    07:00 +27°C° 0 mm 3 mps 761 mmHg 66%
    08:00 +29°C° 0 mm 3 mps 761 mmHg 56%
    09:00 +30°C° 0 mm 3 mps 761 mmHg 51%
    10:00 +33°C° 0 mm 3 mps 761 mmHg 46%
    11:00 +35°C° 0 mm 2 mps 760 mmHg 40%
    12:00 +34°C° 0 mm 3 mps 760 mmHg 41%
    13:00 +34°C° 0 mm 4 mps 759 mmHg 42%
    14:00 +34°C° 0 mm 4 mps 758 mmHg 42%
    15:00 +33°C° 0 mm 4 mps 758 mmHg 47%
    16:00 +30°C° 0 mm 5 mps 758 mmHg 51%
    17:00 +29°C° 0 mm 5 mps 757 mmHg 56%
    18:00 +28°C° 0 mm 5 mps 758 mmHg 62%
    19:00 +26°C° 0 mm 5 mps 758 mmHg 68%
    20:00 +25°C° 0 mm 5 mps 758 mmHg 75%
    21:00 +25°C° 0 mm 5 mps 759 mmHg 77%
    22:00 +23°C° 0 mm 5 mps 759 mmHg 80%
    23:00 +23°C° 0 mm 5 mps 759 mmHg 83%

    Day after tomorrow, 18 December, Monday

    Time Temperature Precipitation Wind Pressure Humidity
    00:00 +23°C° 0 mm 4 mps 759 mmHg 85%
    01:00 +23°C° 0 mm 4 mps 758 mmHg 86%
    02:00 +22°C° 0 mm 3 mps 758 mmHg 88%
    03:00 +22°C° 0 mm 3 mps 758 mmHg 89%
    04:00 +23°C° 0 mm 2 mps 758 mmHg 90%
    05:00 +22°C° 0 mm 1 mps 759 mmHg 90%
    06:00 +25°C° 0 mm 1 mps 759 mmHg 78%
    07:00 +28°C° 0 mm 1 mps 759 mmHg 65%
    08:00 +31°C° 0 mm 1 mps 760 mmHg 52%
    09:00 +34°C° 0 mm 2 mps 759 mmHg 48%
    10:00 +35°C° 0 mm 2 mps 759 mmHg 43%
    11:00 +37°C° 0 mm 3 mps 759 mmHg 38%
    12:00 +36°C° 0 mm 3 mps 758 mmHg 40%
    13:00 +35°C° 0 mm 4 mps 757 mmHg 43%
    14:00 +35°C° 0 mm 5 mps 757 mmHg 45%
    15:00 +33°C° 0 mm 5 mps 756 mmHg 51%
    16:00 +32°C° 0 mm 5 mps 756 mmHg 56%
    17:00 +30°C° 0 mm 5 mps 756 mmHg 61%
    18:00 +28°C° 0 mm 5 mps 756 mmHg 68%
    19:00 +27°C° 0 mm 4 mps 757 mmHg 76%
    20:00 +26°C° 0 mm 4 mps 757 mmHg 83%
    21:00 +26°C° 0 mm 4 mps 757 mmHg 86%
    22:00 +26°C° 0 mm 4 mps 758 mmHg 89%
    23:00 +26°C° 0 mm 4 mps 758 mmHg 92%

    19 December, Tuesday

    Time Temperature Precipitation Wind Pressure Humidity
    00:00 +26°C° 0 mm 4 mps 757 mmHg 90%
    01:00 +27°C° 0 mm 4 mps 757 mmHg 89%
    02:00 +27°C° 0 mm 4 mps 756 mmHg 87%
    03:00 +27°C° 0 mm 4 mps 756 mmHg 87%
    04:00 +27°C° 0 mm 4 mps 757 mmHg 88%
    05:00 +27°C° 0 mm 3 mps 757 mmHg 88%
    06:00 +29°C° 0 mm 3 mps 757 mmHg 79%
    07:00 +31°C° 0 mm 3 mps 757 mmHg 71%
    08:00 +33°C° 0 mm 3 mps 758 mmHg 62%
    09:00 +35°C° 0 mm 4 mps 757 mmHg 58%
    10:00 +36°C° 0 mm 4 mps 757 mmHg 53%
    11:00 +37°C° 0 mm 5 mps 757 mmHg 48%
    12:00 +37°C° 0 mm 5 mps 756 mmHg 50%
    13:00 +36°C° 0 mm 6 mps 756 mmHg 52%
    14:00 +36°C° 0 mm 6 mps 755 mmHg 54%
    15:00 +35°C° 0 mm 6 mps 755 mmHg 59%
    16:00 +34°C° 0 mm 6 mps 755 mmHg 64%
    17:00 +33°C° 0 mm 6 mps 755 mmHg 68%
    18:00 +32°C° 0 mm 6 mps 756 mmHg 74%
    19:00 +30°C° 0 mm 6 mps 756 mmHg 79%
    20:00 +28°C° 0 mm 5 mps 757 mmHg 84%
    21:00 +28°C° 0 mm 5 mps 757 mmHg 85%
    22:00 +28°C° 0 mm 5 mps 757 mmHg 86%
    23:00 +27°C° 0 mm 4 mps 757 mmHg 87%

    20 December, Wednesday

    Time Temperature Precipitation Wind Pressure Humidity
    00:00 +27°C° 0 mm 4 mps 757 mmHg 88%
    01:00 +27°C° 0 mm 4 mps 757 mmHg 89%
    02:00 +27°C° 0 mm 3 mps 757 mmHg 90%
    03:00 +27°C° 0 mm 3 mps 757 mmHg 90%
    04:00 +26°C° 0 mm 3 mps 758 mmHg 91%
    05:00 +26°C° 0 mm 3 mps 758 mmHg 91%
    06:00 +28°C° 0 mm 3 mps 758 mmHg 81%
    07:00 +30°C° 0 mm 4 mps 759 mmHg 72%
    08:00 +33°C° 0 mm 4 mps 759 mmHg 62%
    09:00 +33°C° 0.1 mm 4 mps 759 mmHg 61%
    10:00 +34°C° 0.1 mm 4 mps 759 mmHg 60%
    11:00 +34°C° 0.1 mm 4 mps 758 mmHg 59%
    12:00 +34°C° 0.4 mm 5 mps 758 mmHg 60%
    13:00 +34°C° 0.4 mm 5 mps 758 mmHg 62%
    14:00 +34°C° 0.4 mm 5 mps 757 mmHg 63%
    15:00 +33°C° 0.3 mm 5 mps 758 mmHg 66%
    16:00 +32°C° 0.3 mm 5 mps 758 mmHg 70%
    17:00 +30°C° 0.3 mm 5 mps 758 mmHg 73%
    18:00 +29°C° 0.1 mm 5 mps 758 mmHg 77%
    19:00 +28°C° 0.1 mm 5 mps 759 mmHg 81%
    20:00 +28°C° 0.1 mm 5 mps 759 mmHg 85%
    21:00 +27°C° 0.1 mm 5 mps 759 mmHg 85%
    22:00 +27°C° 0.1 mm 5 mps 759 mmHg 86%
    23:00 +27°C° 0.1 mm 5 mps 759 mmHg 87%

    21 December, Thursday

    Time Temperature Precipitation Wind Pressure Humidity
    00:00 +27°C° 0.1 mm 5 mps 759 mmHg 88%
    01:00 +27°C° 0.1 mm 5 mps 759 mmHg 89%
    02:00 +26°C° 0.1 mm 5 mps 759 mmHg 90%
    03:00 +26°C° 0.2 mm 5 mps 759 mmHg 90%
    04:00 +26°C° 0.2 mm 5 mps 759 mmHg 89%
    05:00 +26°C° 0.2 mm 5 mps 760 mmHg 89%
    06:00 +28°C° 0.1 mm 5 mps 760 mmHg 82%
    07:00 +29°C° 0.1 mm 5 mps 760 mmHg 74%
    08:00 +30°C° 0.1 mm 5 mps 760 mmHg 67%
    09:00 +32°C° 0.2 mm 6 mps 760 mmHg 65%
    10:00 +32°C° 0.2 mm 6 mps 760 mmHg 63%
    11:00 +33°C° 0.2 mm 6 mps 760 mmHg 61%
    12:00 +33°C° 0.3 mm 6 mps 759 mmHg 63%
    13:00 +32°C° 0.3 mm 7 mps 759 mmHg 64%
    14:00 +32°C° 0.3 mm 7 mps 759 mmHg 65%
    15:00 +30°C° 0.1 mm 7 mps 759 mmHg 68%
    16:00 +30°C° 0.1 mm 7 mps 758 mmHg 70%
    17:00 +29°C° 0.1 mm 7 mps 758 mmHg 73%
    18:00 +29°C° 0 mm 7 mps 758 mmHg 77%
    19:00 +28°C° 0 mm 6 mps 759 mmHg 81%
    20:00 +27°C° 0 mm 6 mps 759 mmHg 86%
    21:00 +27°C° 0 mm 6 mps 759 mmHg 86%
    22:00 +27°C° 0 mm 6 mps 759 mmHg 87%
    23:00 +27°C° 0 mm 6 mps 759 mmHg 88%
    Show more